Dewpoint
55 54 52 49 48 45 44 47 44 42 39 42 44 46 47 47 49 51 53 56 56 55 54 52 51 50 49 47 45 43 43 42 41 41 42 43 42 41 41 41 41 40 40
53 52 50 47 46 43 48 46 44 42 39 39 41 43 42 43 44 46 49 53 56 56 55 53 52 50 49 47 44 42 42 41 40 40 40 40 39 40 40 39 39 39 39
53 51 50 47 46 44 49 47 45 42 37 37 37 42 43 43 44 45 51 55 56 56 56 55 52 49 49 47 43 42 40 38 38 39 38 38 39 39 39 38 37 37 37
53 52 50 48 48 48 48 48 46 43 39 36 36 38 42 44 44 46 50 53 54 55 55 54 53 51 48 46 44 41 38 37 37 37 37 38 38 38 37 36 35 35 36
54 53 53 51 51 50 51 49 47 44 41 37 35 36 37 41 42 45 48 50 51 52 52 53 52 49 48 46 44 39 36 36 37 35 36 37 36 34 33 33 34 34 34
55 55 55 55 53 52 50 49 46 44 42 39 36 36 37 37 38 44 45 48 49 49 49 49 49 48 48 45 40 36 35 35 36 35 36 36 33 32 31 32 32 33 33
56 56 55 55 54 52 50 49 46 43 41 40 37 36 36 37 37 37 41 45 46 47 46 46 47 45 46 43 38 36 35 35 36 35 35 34 33 32 32 31 31 32 32
54 56 55 55 54 51 49 47 45 42 41 40 36 36 34 36 39 38 37 39 42 44 44 43 43 41 38 40 38 38 35 36 36 35 36 35 34 33 32 32 32 31 32
55 56 56 55 54 52 50 48 46 42 40 39 40 37 37 35 39 39 39 36 37 39 42 41 40 38 35 36 39 40 38 38 36 36 37 37 36 34 33 32 31 31 32
55 57 57 56 55 53 51 49 48 44 41 39 40 42 42 41 38 36 37 39 38 36 36 38 37 35 34 34 36 37 38 39 39 36 37 38 37 35 34 33 32 32 31
55 57 57 57 56 54 52 51 49 47 44 42 40 43 43 42 40 38 37 38 38 39 37 36 35 35 34 33 33 35 38 39 39 37 36 38 38 36 35 33 32 32 31
54 56 56 57 56 55 53 53 52 49 46 45 44 43 42 42 41 40 39 38 37 38 38 38 37 36 35 33 33 33 37 38 40 39 37 38 38 37 36 34 32 32 30
53 55 56 56 56 56 55 54 52 50 48 46 45 45 45 44 45 44 41 41 40 38 32 32 35 37 37 36 35 36 37 39 39 39 39 39 38 37 36 34 32 32 30
53 55 56 57 57 57 55 54 53 51 50 48 46 46 46 46 46 45 43 41 38 35 31 32 31 32 35 37 36 36 37 39 41 40 39 40 40 38 36 34 33 31 30
55 56 57 57 58 58 56 54 53 51 49 48 47 47 47 48 47 46 42 37 35 34 33 34 31 31 32 33 33 35 37 38 41 41 40 39 39 38 37 36 33 31 30
56 56 57 57 56 55 54 54 52 50 48 48 48 48 47 47 46 45 42 40 38 37 35 34 33 31 31 30 30 34 35 38 40 41 40 39 38 38 37 37 35 33 30
56 56 56 55 55 54 51 50 49 48 47 47 47 47 46 46 44 42 42 41 40 39 37 37 33 31 31 31 29 30 34 36 38 39 41 39 37 36 36 36 36 34 33
57 56 55 55 52 51 50 49 48 47 47 46 46 46 44 43 42 42 41 40 40 40 38 35 34 32 31 31 31 30 30 32 33 34 35 39 39 37 36 36 36 35 35
57 57 57 55 52 51 49 48 47 47 47 46 45 44 43 41 40 40 40 40 38 37 36 34 34 34 33 32 32 33 33 33 32 31 31 31 33 36 38 36 35 34 34
57 56 55 53 52 50 49 47 47 46 45 45 44 43 42 41 39 39 39 38 37 36 36 36 36 35 34 35 35 34 33 34 34 35 35 34 34 34 34 36 35 35 34
57 54 53 51 49 48 47 46 45 44 44 43 43 42 41 39 40 39 38 36 35 34 32 31 30 30 30 30 29 31 31 32 33 33 33 33 33 32 32 33 35 35 34
52 51 49 47 47 46 46 44 44 43 43 42 41 40 40 39 36 33 32 30 30 28 25 26 24 22 23 24 27 24 25 25 21 26 31 29 30 30 30 30 30 32 33
47 47 46 46 45 44 43 43 43 42 41 41 40 37 37 34 31 29 26 24 23 23 24 21 19 19 20 21 23 23 23 23 23 24 23 23 25 26 29 26 26 28 31
45 44 43 43 43 43 42 42 41 39 38 37 37 35 30 29 27 25 22 19 18 19 20 21 21 22 22 23 25 26 26 25 25 25 26 23 23 24 26 26 25 27 29
41 41 41 41 41 40 40 39 38 36 32 29 27 26 25 25 25 22 19 17 20 22 23 23 20 20 21 21 22 25 22 22 21 21 23 23 23 24 26 26 25 28 31
38 38 37 37 37 37 37 36 35 31 28 24 22 22 23 22 20 20 21 22 22 22 20 20 19 19 18 20 20 22 18 16 16 15 18 21 22 25 25 26 27 29 31
Wind_Speed
15 13 17 15 12 16 14 13 14 14 14 15 14 16 15 14 12 9 8 11 12 13 14 14 13 11 11 9 9 7 7 7 7 8 9 9 10 10 11 12 13 14 14
17 14 17 15 13 14 12 14 15 13 13 13 13 13 14 13 11 10 8 8 14 12 13 13 13 10 10 8 7 6 6 5 5 6 7 8 9 10 11 12 12 12 13
17 18 16 16 14 13 13 11 10 11 12 9 12 12 12 11 11 11 8 7 11 13 12 12 13 10 10 10 8 7 6 4 4 6 6 7 7 8 10 10 11 12 12
16 17 16 15 14 13 12 13 13 12 11 12 12 11 12 11 12 11 9 8 9 10 12 14 12 12 12 10 9 7 6 5 5 5 5 5 5 6 7 9 10 12 13
16 16 15 14 14 13 11 14 9 11 13 12 10 11 11 12 12 10 11 11 10 11 11 13 14 13 13 12 11 8 7 6 6 6 5 4 3 3 6 8 10 11 12
13 14 14 14 15 14 14 14 14 9 9 14 7 8 3 2 5 10 13 11 13 13 12 11 12 12 14 14 12 10 9 9 9 8 7 6 3 0 4 7 9 11 12
11 12 11 11 12 16 17 17 9 13 8 8 6 1 2 4 7 8 10 13 14 15 14 15 14 14 14 14 14 14 13 12 11 11 10 9 6 3 3 5 8 10 11
6 11 14 15 16 13 13 15 13 8 6 13 6 4 4 6 9 13 12 15 17 11 15 15 16 16 15 14 16 18 17 15 15 15 14 12 10 7 5 6 8 10 11
10 12 16 16 17 16 18 19 17 17 14 13 7 7 4 10 3 4 14 15 15 15 13 14 16 16 16 17 17 18 19 18 19 18 17 16 14 11 9 8 8 10 11
13 14 17 18 17 16 17 19 18 16 14 15 6 10 4 5 6 4 6 11 15 17 16 14 14 16 17 17 20 21 22 22 21 22 20 19 18 16 13 11 9 11 13
16 17 20 18 18 18 18 19 15 16 14 12 14 6 4 3 3 8 9 6 5 10 12 14 15 15 16 17 18 20 24 25 26 25 24 23 21 19 17 14 12 13 14
17 18 17 18 19 17 18 19 18 19 20 16 16 15 14 7 12 8 10 10 9 5 8 11 14 16 17 16 18 22 25 27 28 28 27 26 24 23 22 18 15 15 15
17 17 18 18 16 16 14 13 16 18 19 22 22 19 14 13 7 6 7 6 9 5 5 7 10 12 13 14 16 20 22 26 29 29 29 28 28 27 25 22 19 18 17
16 14 19 19 19 14 11 12 12 13 15 16 19 16 14 12 9 8 8 6 6 8 4 7 2 5 9 12 15 21 19 24 25 27 29 30 29 28 27 26 24 21 20
15 13 16 15 15 15 19 19 20 20 17 19 18 14 12 9 10 9 6 7 7 6 6 3 4 4 9 10 15 14 16 21 24 27 31 32 31 30 29 29 28 25 23
14 10 10 12 13 14 18 17 13 15 18 15 12 14 12 10 11 7 9 7 6 6 5 4 5 5 8 11 15 13 17 23 22 28 29 30 32 32 32 32 30 28 27
14 16 14 14 12 15 11 14 14 14 18 15 11 13 11 9 10 9 7 5 5 5 9 5 7 5 7 15 15 11 13 14 14 20 27 31 33 34 35 33 31 27 27
20 17 15 17 15 15 15 18 19 17 17 15 14 14 12 10 12 9 8 6 3 5 5 11 4 7 9 14 16 15 16 11 14 17 22 26 29 29 28 28 26 23 31
23 24 22 18 17 16 17 15 15 15 13 13 14 15 15 15 12 8 4 3 1 3 5 6 9 6 8 8 10 10 12 14 13 17 22 27 27 30 35 40 42 35 42
28 27 18 18 17 16 15 14 13 13 12 12 13 14 15 13 11 8 4 1 3 6 8 8 6 7 8 10 9 14 19 15 18 14 20 25 25 28 33 38 39 38 38
22 16 16 14 14 15 15 16 15 15 15 14 13 13 12 9 9 7 4 2 1 2 5 7 8 9 10 10 13 11 16 18 20 15 20 21 17 20 22 27 32 36 36
14 14 15 17 17 12 16 18 16 15 13 14 13 12 12 12 13 14 11 8 8 4 5 4 5 11 10 12 10 13 16 19 24 11 11 23 17 24 21 19 25 30 32
17 17 16 16 14 13 20 19 16 13 14 13 15 15 12 10 9 8 9 8 5 3 1 5 10 10 11 11 14 16 16 18 23 21 17 27 19 26 21 21 26 29 28
17 16 14 13 14 13 18 17 16 14 14 13 12 11 13 11 9 6 5 4 3 2 3 3 6 10 12 13 13 16 18 19 21 19 13 21 21 25 22 19 24 26 24
15 13 13 14 14 13 17 19 17 15 16 14 12 11 10 9 8 8 3 4 5 5 3 7 11 15 16 17 17 15 15 16 23 26 12 18 23 23 21 18 15 25 21
14 15 13 11 14 14 17 19 18 16 15 12 9 10 8 9 7 4 1 1 5 6 7 10 9 11 12 13 14 8 13 17 19 23 12 15 22 21 16 6 11 11 13
Wind_Direction
142 146 139 139 140 127 129 133 126 124 125 140 139 141 144 141 144 139 142 167 168 163 156 148 144 142 138 127 121 109 104 85 71 60 61 50 47 47 37 28 22 16 13
146 157 143 151 152 138 147 146 143 141 137 141 148 149 149 147 147 141 158 189 182 173 171 159 154 153 153 148 134 127 123 101 78 80 72 59 48 44 42 32 22 14 8
158 155 155 161 157 157 149 145 142 141 142 142 148 161 160 157 152 151 166 187 183 171 170 169 169 171 165 160 161 156 143 133 115 95 77 65 58 43 29 20 11 3 358
165 152 166 175 160 167 166 166 161 163 160 164 161 172 173 169 165 165 170 182 177 175 172 170 170 170 174 175 178 174 165 156 144 124 108 94 70 42 21 6 358 353 348
166 161 178 186 172 177 182 173 177 174 181 188 182 177 183 184 180 175 183 187 183 179 174 172 163 167 176 184 191 198 191 181 174 159 151 135 98 37 6 354 345 341 337
163 189 197 190 183 187 192 184 185 187 190 187 184 193 203 211 197 199 200 194 192 187 182 180 178 183 184 193 202 208 207 203 202 191 188 180 169 52 353 338 331 326 326
168 193 203 192 185 195 197 196 176 187 190 164 145 166 256 242 237 229 220 215 206 202 195 201 196 193 197 195 203 209 216 217 213 211 212 206 200 206 288 308 310 310 311
191 209 210 206 197 202 199 185 178 165 189 178 164 132 211 250 234 224 225 222 224 211 209 215 208 201 203 199 204 211 221 226 220 220 221 220 218 222 251 281 296 298 300
235 232 223 210 205 200 201 198 193 188 186 197 200 165 170 227 210 204 218 215 220 221 222 219 219 211 210 209 208 213 218 225 224 225 225 225 228 231 242 261 281 289 291
241 230 220 214 209 213 208 207 202 200 183 191 208 224 218 146 199 258 257 230 211 220 218 220 223 222 217 215 215 215 217 219 222 226 228 228 232 237 242 254 275 285 289
236 225 219 217 218 213 212 206 203 203 203 190 192 175 198 190 221 218 253 227 232 224 220 224 225 227 222 218 219 220 221 221 221 223 229 231 235 239 243 250 265 278 288
235 229 223 218 216 215 216 212 206 206 209 214 202 193 198 183 209 196 224 241 227 240 230 232 225 226 226 222 225 226 225 222 224 221 225 231 235 239 244 249 258 269 275
233 230 218 217 218 217 222 206 207 220 207 212 206 209 202 201 175 188 205 223 241 263 271 252 243 234 228 224 230 230 232 228 226 222 222 226 232 237 243 248 252 258 264
236 229 220 215 212 196 218 204 213 219 212 212 211 199 201 201 171 172 182 194 256 246 239 247 299 243 242 234 232 235 232 234 231 226 225 225 229 233 239 243 245 249 255
237 232 231 220 208 209 221 218 217 212 202 207 212 203 197 182 187 184 199 179 201 258 259 242 254 263 264 267 256 243 234 237 230 227 226 227 229 230 234 238 240 243 248
227 226 201 196 204 212 220 216 215 200 197 206 188 188 191 181 180 193 170 178 173 207 255 233 274 270 294 290 277 252 246 242 237 231 231 230 230 233 235 237 236 238 244
195 206 198 201 209 222 204 203 205 196 198 187 175 188 183 162 172 174 149 181 204 210 267 290 248 274 281 288 289 285 266 258 252 251 244 239 236 234 237 239 240 239 243
196 191 201 228 197 202 204 206 204 196 193 185 184 172 173 164 163 166 173 193 240 271 283 294 293 281 274 279 276 280 279 254 246 247 246 249 255 263 258 249 250 251 257
196 195 214 221 213 206 202 199 195 182 180 179 175 174 174 168 169 171 181 207 236 317 298 287 290 275 273 278 290 289 288 286 272 259 249 246 242 244 246 248 244 242 245
201 206 203 191 195 191 191 182 175 176 175 173 170 164 166 171 169 166 155 67 352 316 305 285 281 303 309 311 288 303 302 295 290 280 271 264 261 257 253 251 247 245 243
202 193 183 172 171 174 173 176 174 172 172 172 164 160 148 140 112 117 140 97 63 353 333 325 326 321 303 312 315 314 304 300 292 285 279 275 267 263 265 261 254 251 241
167 158 156 159 165 165 173 169 156 165 165 164 160 137 121 114 113 106 100 92 77 43 321 308 300 298 298 306 313 308 304 300 296 292 287 293 288 275 263 257 253 248 240
146 148 152 153 156 160 166 163 153 152 155 154 150 142 126 116 112 106 86 71 62 34 323 285 289 298 298 298 300 300 287 279 282 283 291 288 288 278 269 259 250 243 223
145 145 141 144 151 163 162 153 144 136 131 126 124 122 124 114 103 116 66 17 340 325 308 293 273 286 276 280 269 275 286 292 290 286 262 276 291 281 279 265 250 233 205
135 139 143 145 148 149 151 144 130 119 115 105 97 102 118 119 92 64 44 327 324 329 323 324 321 315 314 315 311 308 301 300 295 294 285 272 287 284 283 269 238 224 227
126 115 114 118 123 128 132 131 125 123 123 117 97 84 82 83 62 36 42 5 336 338 340 331 324 317 312 305 315 341 328 307 298 294 281 306 301 294 285 252 248 231 227